Dewpoint
46 46 47 47 46 46 46 46 46 46 46 46 45 44 41 39 37 37 37 37 36 35 34 35 36 37 38 40 42 43 43 44 44 44 45 46 47 48 48 48 49 49 50 50 50 50 51 51 51 51 52 52 52 52 52 52 52 52 52 52 52 52 52 52 52 51 51 50 49 49 49 49 49 49 50 51 52 53 54 56 57 58 60 61 62 62
44 45 45 45 45 45 45 44 44 44 42 40 38 36 35 33 33 33 33 33 33 32 31 31 33 34 35 37 39 41 42 42 43 43 44 44 45 46 47 48 48 49 49 50 50 50 50 50 50 50 50 51 51 51 52 52 52 52 52 52 52 52 52 52 52 51 51 50 49 49 49 49 49 49 50 50 51 52 53 55 56 57 59 60 61 62
43 43 44 44 44 43 43 40 39 37 35 33 33 33 33 32 31 31 31 31 31 31 30 30 30 32 33 35 37 39 40 40 41 41 42 42 43 44 44 45 46 47 48 48 49 49 49 49 49 49 49 50 50 50 50 51 51 52 52 52 52 52 52 52 51 51 50 50 49 49 49 49 49 50 50 50 50 51 53 54 55 56 57 59 61 62
41 41 42 43 43 41 39 37 35 34 33 33 33 33 33 32 31 30 31 30 30 30 30 30 30 30 32 33 35 37 39 39 39 39 40 41 41 42 43 44 44 45 46 47 48 48 48 49 49 49 49 49 50 50 50 51 51 52 52 52 52 52 52 51 51 50 50 49 49 49 49 49 49 50 50 50 50 51 52 53 54 55 57 58 60 61
36 36 36 38 37 35 34 34 34 33 33 33 33 33 32 31 31 31 31 30 30 30 30 29 30 30 30 31 33 35 37 38 39 39 39 40 40 41 41 42 42 43 44 44 45 46 47 47 48 48 48 49 49 50 50 51 51 51 52 52 52 52 51 51 51 50 50 50 50 49 49 49 49 49 50 50 50 51 51 52 53 54 55 57 58 60
30 30 30 30 29 29 30 31 31 31 31 31 31 31 31 31 31 31 30 30 30 30 30 30 30 30 29 30 33 35 37 37 38 39 39 39 39 39 39 39 40 40 41 42 42 43 44 44 45 46 47 47 48 49 49 50 51 51 52 51 51 51 51 51 50 50 50 50 50 50 50 50 50 50 50 50 50 51 51 52 52 53 54 56 57 58
29 29 29 29 29 29 30 30 30 30 30 29 29 29 30 30 30 30 30 30 30 30 30 30 30 29 28 30 32 34 35 36 37 37 37 37 37 37 37 38 38 38 39 39 40 41 42 43 44 44 45 46 47 48 48 49 50 51 51 51 51 51 51 51 50 50 50 50 50 50 50 50 50 50 50 50 50 50 51 51 52 53 53 54 56 57
30 30 30 30 30 30 30 30 30 30 29 28 28 28 28 29 29 30 30 30 30 30 29 29 29 28 27 27 29 31 32 33 33 33 34 34 35 36 37 37 38 38 38 39 39 40 41 42 43 44 44 45 45 46 47 48 48 49 50 50 50 50 50 50 50 50 50 50 50 50 50 50 50 50 50 49 49 50 50 51 51 52 53 53 55 56
29 29 29 29 29 29 28 29 29 29 29 29 28 27 27 27 28 28 29 29 29 29 28 27 27 26 26 26 27 28 29 29 29 29 30 30 33 35 37 38 38 38 38 38 39 39 40 41 41 42 42 43 44 44 45 46 47 47 48 48 49 49 49 50 50 50 50 50 50 50 50 50 50 50 49 49 49 49 49 50 50 51 52 53 54 55
27 27 27 28 28 28 27 27 28 29 29 29 28 28 27 27 26 26 26 27 28 29 29 27 26 25 25 26 26 26 27 28 30 30 31 32 33 35 37 37 38 38 37 37 38 38 38 39 39 39 39 40 41 42 43 44 44 45 46 46 47 47 48 48 49 49 49 49 49 49 49 49 49 49 49 49 49 49 49 49 49 50 51 52 53 53
27 27 27 27 27 28 28 27 27 28 29 28 28 28 29 27 26 25 24 25 26 26 27 26 26 25 24 24 25 25 26 26 27 30 32 33 34 35 36 36 36 37 36 36 36 36 36 37 37 37 38 38 39 39 40 41 42 43 43 43 44 44 45 46 47 48 48 48 48 48 48 48 48 48 48 48 48 48 48 48 48 49 49 50 51 53
28 27 27 27 27 27 27 27 27 28 28 27 26 26 26 26 25 25 24 24 25 25 25 26 26 25 25 24 24 24 25 25 26 27 29 31 32 33 33 33 34 34 35 35 35 35 35 35 36 36 37 37 38 38 38 39 40 40 40 40 41 41 42 43 44 44 45 45 45 45 45 45 45 45 45 46 46 47 47 48 48 48 48 49 50 51
29 28 28 27 27 26 26 26 26 26 26 25 25 24 24 25 25 25 24 25 25 25 25 25 25 25 25 25 25 25 25 25 26 27 27 28 30 30 30 30 30 31 32 32 32 33 35 35 35 36 36 36 37 37 37 38 38 38 38 38 39 39 39 40 40 41 42 42 42 42 41 42 42 42 42 43 44 44 45 46 47 47 48 48 49 50
29 29 28 28 27 27 26 26 26 26 25 25 25 25 25 26 26 25 25 25 25 25 25 25 25 25 26 26 26 26 26 26 26 26 27 28 28 29 28 28 29 29 30 30 30 31 34 35 35 35 35 36 36 37 37 37 37 37 37 37 37 38 38 38 39 39 39 39 39 39 39 39 39 39 40 40 41 42 44 45 46 47 47 48 48 49
29 29 29 28 28 28 27 27 26 26 26 25 25 25 26 26 26 25 25 25 25 25 25 26 26 26 26 26 26 27 27 27 27 27 27 27 28 28 28 28 28 29 29 29 30 31 33 34 33 33 34 35 35 36 36 37 37 37 36 37 37 37 37 38 38 38 39 39 39 39 39 39 39 39 40 40 41 42 43 44 45 46 47 47 48 49
30 30 30 29 29 28 28 27 26 26 26 26 26 26 26 26 25 25 25 25 25 26 26 25 25 25 25 26 27 29 29 28 27 26 26 26 27 28 28 27 27 28 28 29 30 30 32 32 32 32 33 34 35 35 35 35 36 36 36 36 36 37 37 37 38 38 38 38 39 39 39 39 39 40 40 41 41 42 42 43 44 45 46 47 48 48
31 30 30 30 29 29 28 28 27 27 27 26 26 26 26 26 26 26 25 25 26 25 25 25 24 24 23 24 26 28 29 27 26 25 25 25 26 27 27 27 27 27 28 29 30 30 31 31 32 32 32 33 34 34 34 35 35 35 35 36 36 36 37 37 38 38 38 39 39 39 39 39 40 40 40 41 41 42 42 43 44 44 45 46 47 48
30 30 29 29 28 28 28 28 28 27 27 27 27 27 27 26 26 26 26 26 26 26 26 26 25 24 23 23 24 25 27 26 25 25 25 25 25 26 27 27 27 28 29 30 30 30 30 30 30 30 31 33 33 34 34 34 35 35 35 36 36 36 37 37 38 38 39 39 39 39 39 39 40 40 41 41 41 42 42 43 43 44 45 46 47 48
28 28 27 27 26 26 26 26 26 26 27 27 27 27 27 28 28 28 28 28 27 27 26 26 26 26 25 24 24 25 26 26 25 25 25 24 25 26 28 30 30 30 30 30 30 30 30 29 30 31 32 33 33 33 34 34 34 35 35 35 36 36 37 37 38 38 39 39 39 39 39 39 40 40 41 41 41 42 42 42 43 43 44 45 46 47
28 27 27 26 26 26 25 25 25 25 25 25 26 26 26 26 27 27 27 27 27 27 27 27 27 26 26 25 25 26 27 27 27 28 29 31 32 33 31 30 29 28 28 28 28 28 28 27 27 29 31 32 32 33 33 34 34 35 35 35 36 36 37 37 38 38 38 39 39 39 39 40 40 40 41 41 41 41 42 42 42 43 44 44 45 46
26 26 26 25 25 24 24 24 24 25 26 26 26 26 26 25 25 25 25 25 26 26 27 26 26 26 26 26 26 28 31 33 34 34 32 30 28 27 27 27 26 26 26 26 26 27 27 26 26 28 30 31 32 33 33 34 34 35 35 35 35 36 36 37 37 38 38 39 39 39 39 39 40 40 40 41 41 41 41 42 42 43 43 44 44 45
26 25 25 25 24 24 24 24 25 26 27 26 26 26 25 25 25 25 26 26 27 27 27 27 27 27 27 27 28 29 31 32 31 30 29 27 26 26 26 26 25 25 25 25 25 26 26 26 26 27 30 31 32 33 33 33 34 34 34 35 35 35 36 36 37 37 38 38 39 39 39 39 39 40 40 40 41 41 41 41 42 42 43 43 44 45
26 26 26 26 26 26 26 26 26 26 27 27 27 27 26 26 26 26 26 27 28 28 28 28 28 29 29 29 29 29 30 30 30 30 28 27 26 25 25 25 25 25 25 25 25 26 26 26 26 27 30 31 32 33 33 33 33 34 34 34 35 35 35 35 36 37 37 37 38 38 38 39 39 39 39 39 40 40 41 41 42 42 43 43 44 44
27 27 27 27 27 27 28 28 28 28 28 28 28 28 29 28 28 28 28 29 30 30 30 30 30 30 30 30 30 30 30 30 30 30 29 27 26 26 25 25 25 25 25 26 26 25 25 26 26 27 29 31 32 32 33 33 33 33 33 34 34 34 35 35 35 36 36 36 37 37 37 37 38 38 39 39 40 41 41 42 43 43 43 43 44 44
30 30 30 31 31 31 32 31 31 31 31 30 30 30 30 30 30 31 31 32 32 32 32 31 30 29 28 28 27 27 28 30 30 29 28 27 26 26 26 26 25 25 25 25 26 26 26 26 26 27 28 30 31 32 32 32 33 33 33 33 33 34 34 35 35 35 35 35 35 36 36 37 37 38 39 39 40 42 43 43 44 44 44 44 44 44
34 34 34 35 35 35 35 36 36 36 36 35 35 34 34 33 33 33 33 33 33 32 31 30 28 26 25 25 24 24 26 28 29 29 28 27 26 26 26 26 25 25 25 25 26 26 26 26 26 27 27 28 30 31 32 32 32 32 33 33 33 34 34 35 35 35 35 35 35 36 36 37 38 39 39 40 40 41 42 42 43 43 44 44 44 44
34 34 34 34 34 35 35 35 35 36 36 37 37 37 36 36 35 33 32 32 31 30 28 26 25 24 24 24 24 25 26 28 29 29 29 28 26 25 25 25 25 25 25 26 26 27 28 28 27 27 27 27 28 30 31 32 32 33 33 33 34 34 35 35 35 35 35 35 36 36 37 38 39 39 39 39 39 39 39 40 41 41 42 42 43 44
34 34 34 34 34 35 35 35 35 35 35 36 36 37 37 36 34 32 31 30 30 29 27 25 24 24 24 24 26 28 30 30 30 31 31 29 27 26 26 26 26 26 26 27 28 29 30 29 28 27 27 27 28 29 31 32 33 33 34 34 34 35 35 35 35 35 35 35 35 36 37 38 38 38 38 37 37 38 38 38 39 40 41 41 43 44
34 34 34 35 35 35 35 35 35 35 35 35 35 35 35 35 33 31 30 30 29 28 26 26 26 26 26 26 26 28 29 30 31 33 34 30 28 27 29 30 29 29 29 29 28 28 27 26 26 26 26 28 28 29 30 31 32 33 34 34 34 34 34 34 34 34 34 34 35 36 37 37 37 37 36 36 36 37 37 38 38 39 40 42 43 44
32 32 33 34 34 34 35 34 35 35 35 35 35 34 34 33 31 30 30 29 28 27 26 26 26 26 26 26 25 25 24 26 31 35 35 32 30 30 31 30 29 28 28 27 26 25 23 24 24 25 26 27 28 28 29 30 30 31 31 32 32 32 33 33 32 33 33 34 35 36 36 36 36 36 36 35 36 36 37 37 38 39 40 42 44 44
31 32 32 32 32 32 33 33 33 33 34 34 34 33 32 31 30 30 29 28 28 27 26 26 26 26 26 26 24 23 22 24 29 33 32 30 29 29 30 27 26 26 26 26 24 22 21 21 22 24 25 26 26 27 28 28 28 28 28 28 29 29 31 31 31 32 33 35 35 36 36 35 35 35 35 35 35 36 36 37 38 39 40 41 43 44
30 30 30 30 30 30 30 30 30 30 31 31 31 31 31 30 29 29 28 28 27 27 27 27 26 26 26 26 25 24 23 23 26 29 28 27 26 26 28 26 25 24 24 25 24 22 21 21 21 22 23 24 24 25 26 26 26 26 26 26 26 27 29 30 31 33 34 35 35 35 35 35 35 35 35 35 35 36 36 37 38 39 40 41 41 41
26 26 26 26 26 26 26 26 27 28 29 29 29 29 30 30 30 30 30 30 29 29 28 27 27 26 26 25 25 25 26 26 27 28 28 27 26 26 27 26 26 25 24 25 24 24 22 22 22 22 22 23 24 24 25 26 26 27 27 27 27 27 29 30 32 33 35 35 34 34 34 34 34 34 35 35 35 36 36 37 38 39 40 41 41 41
22 22 22 21 21 22 22 23 25 26 27 28 29 30 30 30 30 30 30 30 30 29 29 28 27 27 26 26 26 26 26 26 27 28 29 29 28 28 29 28 27 27 26 26 26 25 24 24 24 23 23 24 25 25 26 26 27 28 29 28 28 28 29 31 32 32 32 32 31 31 32 32 33 34 35 35 35 36 36 37 37 38 39 40 41 41
20 20 20 20 20 21 21 21 22 23 24 24 24 25 25 25 26 27 28 30 30 31 31 30 30 29 28 26 26 25 24 24 26 27 29 30 30 30 30 29 29 28 28 27 27 26 26 26 26 26 26 26 26 27 27 28 29 30 30 30 30 30 31 31 31 30 30 30 30 30 30 31 32 34 34 35 35 35 36 36 36 37 38 39 40 40
19 19 19 19 20 20 20 21 21 22 22 22 22 23 25 27 29 30 31 31 30 30 30 30 30 30 29 28 26 26 25 26 27 29 30 31 32 31 30 29 29 29 29 28 28 28 28 28 28 29 29 28 28 28 30 30 30 30 30 30 30 30 31 31 30 30 29 29 29 29 30 30 31 32 33 34 35 35 35 35 36 36 37 38 39 39
18 19 19 19 20 20 20 21 22 23 25 26 26 27 28 28 26 26 25 26 26 26 26 26 27 28 29 28 28 27 27 28 29 30 31 32 32 31 30 29 29 30 29 28 28 27 27 27 27 26 26 26 26 25 26 27 27 28 28 28 29 29 30 30 30 29 29 29 29 30 30 30 31 32 32 34 34 35 35 35 36 36 37 37 38 38
18 18 18 19 19 20 20 21 21 21 22 22 22 22 22 22 21 21 21 22 22 22 22 22 23 24 26 27 28 28 28 29 29 29 30 30 30 30 29 28 28 29 29 28 27 27 26 26 24 23 22 22 22 23 23 23 24 25 26 27 27 28 28 28 28 29 29 29 30 30 31 31 31 32 32 33 33 34 34 35 35 36 37 37 38 38
17 17 18 18 19 19 18 18 18 18 19 19 20 21 21 21 22 22 22 22 22 22 22 22 22 23 24 25 26 27 28 27 27 27 28 28 28 27 26 26 26 27 27 27 27 27 26 25 24 23 22 21 21 22 22 22 23 24 25 26 26 26 27 27 28 29 29 29 30 30 30 31 31 31 31 32 32 32 32 33 34 35 35 35 36 37
18 18 18 19 19 19 19 19 20 20 21 22 23 24 24 25 25 25 24 25 25 25 24 24 24 24 24 25 26 26 27 27 27 27 27 27 27 26 26 25 25 25 26 26 27 27 26 26 25 25 24 23 23 23 23 23 24 25 25 25 25 26 26 27 27 28 28 29 29 29 30 30 30 31 31 31 31 31 32 32 32 33 34 34 35 35
19 19 19 20 21 21 22 22 23 24 25 26 26 26 26 26 26 26 26 25 25 26 26 26 26 26 26 26 26 26 26 26 26 26 26 26 26 26 26 26 25 26 26 26 26 27 27 26 26 25 25 25 25 25 25 25 25 26 26 26 26 26 26 27 27 28 28 28 29 29 30 30 30 30 31 31 32 32 32 32 32 33 34 34 35 35
20 20 21 21 22 23 24 24 25 24 24 23 22 21 21 20 20 20 20 20 21 21 21 22 22 23 23 23 23 23 24 24 26 27 29 29 29 29 29 28 27 27 27 27 27 27 27 27 26 26 26 26 26 26 25 26 26 26 26 26 26 27 27 28 28 28 28 28 29 29 30 30 30 31 31 32 32 33 33 33 34 34 35 35 35 36
21 21 21 22 22 22 22 21 21 20 18 17 17 17 17 17 18 19 19 20 20 21 21 22 22 22 22 22 23 25 27 30 30 30 29 28 28 29 28 28 28 28 28 27 27 27 27 27 27 27 27 27 26 26 26 26 26 26 26 27 27 27 26 27 27 28 28 29 30 30 30 30 31 31 32 32 32 33 33 34 34 35 36 36 37 38
20 20 20 20 19 19 18 17 17 17 17 17 17 18 18 19 20 21 21 21 22 23 23 24 24 25 25 25 24 23 22 21 21 21 22 24 26 27 27 28 28 29 29 29 28 27 27 27 27 27 27 28 27 27 26 26 26 27 27 28 28 28 27 27 28 28 29 30 30 31 31 31 31 31 31 31 31 31 31 32 32 33 35 36 37 38
18 18 18 18 17 17 17 17 17 17 18 18 18 18 19 20 21 21 22 22 22 23 23 23 22 21 20 18 17 17 17 18 19 21 22 24 26 26 27 27 28 28 29 29 29 29 28 27 27 27 28 28 28 28 27 27 27 27 28 29 29 29 30 30 30 30 30 31 31 31 31 31 31 30 30 30 30 30 30 31 31 32 33 34 35 36
17 17 17 17 17 17 17 18 18 18 18 18 18 18 19 20 21 21 21 21 21 21 21 21 20 19 18 18 18 18 18 18 18 19 19 21 22 24 25 26 26 26 26 28 29 30 30 29 29 28 28 28 28 28 28 28 27 27 28 28 29 29 30 30 30 30 30 30 30 30 30 30 30 30 30 30 30 30 30 30 31 32 32 33 34 35
17 17 17 17 17 17 17 17 17 17 17 17 17 18 19 19 19 20 20 20 20 20 20 20 20 19 19 19 18 18 18 18 18 18 19 20 21 22 23 24 25 26 26 26 27 29 30 30 30 30 30 29 28 28 28 28 29 29 29 29 29 29 29 30 30 30 30 30 29 29 29 30 30 30 30 30 30 30 30 31 31 32 32 33 34 34
18 17 17 17 17 17 17 17 17 17 17 17 17 18 18 19 19 19 19 20 20 20 20 19 19 18 18 18 18 18 18 18 19 19 19 20 21 22 23 24 25 26 26 27 27 28 28 29 30 30 30 29 28 27 27 28 29 30 30 30 30 30 30 29 29 29 29 29 29 29 30 30 30 30 30 30 30 30 30 31 32 32 33 33 34 34
17 17 17 17 17 17 17 17 17 17 17 17 17 17 17 18 19 20 19 19 19 19 18 18 18 17 17 17 17 18 19 19 19 19 19 20 21 21 23 23 24 25 26 26 27 27 28 29 29 30 30 30 29 28 27 28 28 29 30 30 30 30 29 29 28 28 28 29 29 30 30 30 30 31 30 30 30 30 30 30 31 32 33 34 34 34
17 17 17 17 17 17 17 17 17 17 17 17 17 17 17 17 18 18 18 18 18 18 17 17 17 17 17 17 17 17 17 17 17 18 18 19 20 21 22 22 23 24 25 25 26 26 26 27 28 29 30 31 30 30 28 28 28 28 29 29 29 29 28 28 28 28 28 29 29 30 31 31 32 32 32 31 30 30 30 30 31 32 32 34 34 35
17 17 17 17 17 17 17 17 17 17 17 17 17 17 17 17 17 17 17 17 17 17 17 17 17 17 16 16 17 17 17 17 17 17 18 19 20 21 21 22 23 23 24 23 23 23 23 23 24 25 27 30 31 31 30 29 28 28 28 28 28 28 28 28 28 28 29 29 30 30 31 32 32 32 32 32 31 30 30 30 31 31 32 33 34 35